Theta_e
305 305 304 304 304 303 303 304 304 304 304 305 306 308 313 315 314 315 317 315 313 306 307 309 308 308 318 319 321 318 316 317 320 324 323 322 321 320 321 320 320 321 320 320 320 321 321
304 304 303 303 303 304 303 302 302 302 302 304 305 305 310 313 314 314 317 315 314 308 307 312 310 309 312 318 318 320 317 315 319 323 323 322 322 320 319 319 320 318 320 320 320 320 320
303 302 303 303 303 304 302 302 302 302 301 302 303 304 306 310 312 314 315 316 313 309 307 310 312 310 311 311 310 312 315 318 319 323 323 323 321 320 320 319 319 318 319 318 318 318 319
302 303 303 303 303 303 303 302 302 302 301 301 302 302 303 307 310 313 315 316 312 308 309 310 310 310 311 310 310 310 311 317 318 320 321 320 321 319 317 318 317 319 319 321 319 320 320
303 303 302 302 302 302 302 302 302 301 301 302 301 302 301 305 308 312 314 316 312 308 312 313 312 310 313 311 310 310 310 315 320 316 316 318 318 317 318 317 319 318 320 320 320 318 319
303 303 303 303 302 302 301 301 301 301 301 301 301 301 302 302 304 310 314 316 312 309 311 313 313 312 312 312 311 311 310 314 314 315 315 316 315 316 316 319 322 320 320 318 319 318 318
302 303 303 303 302 302 301 301 301 301 300 300 300 300 302 303 303 304 312 314 310 310 312 312 311 311 311 311 310 310 311 312 313 315 316 314 315 316 316 316 317 316 317 318 317 316 316
303 303 303 302 302 302 301 300 300 300 300 299 300 301 301 301 303 303 306 310 310 311 310 310 310 311 311 311 311 311 311 312 312 314 314 314 315 315 314 315 315 316 317 317 316 315 314
303 303 302 301 301 301 300 299 300 300 300 299 300 299 301 302 301 302 304 311 310 310 310 310 310 311 311 311 312 312 311 312 313 314 315 315 314 312 313 314 315 316 316 316 315 313 313
301 301 301 300 300 300 299 299 299 300 299 300 299 299 301 302 301 302 305 308 310 310 313 310 310 310 310 311 312 311 311 312 312 314 314 314 313 312 313 314 314 316 313 314 313 314 315
301 300 300 300 299 298 298 299 298 299 299 300 300 300 301 302 302 305 307 307 309 308 315 309 309 309 310 310 311 311 311 311 313 313 313 314 312 313 312 312 312 313 311 311 312 314 313
299 300 299 299 298 298 298 298 299 299 299 299 300 301 301 303 303 303 307 307 307 309 314 309 309 311 311 310 311 311 311 311 311 312 312 312 310 311 312 311 311 311 312 312 312 313 317
299 299 298 298 298 298 298 298 298 299 299 300 301 302 302 303 303 303 306 307 309 316 308 309 310 311 310 311 312 312 312 312 313 314 313 312 312 311 310 311 311 312 311 314 315 316 315
299 299 298 298 298 298 298 298 298 299 300 301 301 303 303 304 304 305 306 306 314 311 311 309 310 310 312 310 312 312 312 313 312 312 314 313 316 313 311 311 312 311 312 314 314 314 313
299 298 298 298 298 298 298 298 298 299 300 301 302 303 304 304 304 305 304 312 313 310 310 310 311 311 312 310 312 311 312 312 311 312 314 313 311 310 311 311 311 312 313 312 314 314 315
298 298 298 298 298 297 297 297 298 299 300 302 301 302 304 305 304 304 304 313 308 310 309 310 312 310 311 311 312 312 312 312 312 312 311 312 313 309 311 310 311 312 311 313 314 313 314
298 298 298 298 297 296 297 297 298 300 301 302 301 302 304 304 303 303 310 310 310 309 310 311 311 311 311 311 311 311 313 311 311 312 312 312 311 311 310 311 312 311 312 314 313 314 313
298 297 298 298 297 296 297 297 298 299 300 302 302 303 303 304 305 304 310 309 310 310 312 312 311 311 312 312 312 312 313 311 309 311 312 312 311 312 311 310 310 310 311 311 314 314 314
298 298 297 297 297 297 297 296 298 299 301 302 301 301 304 305 309 310 308 310 311 312 313 313 313 312 311 312 313 312 311 309 309 311 312 311 312 312 314 312 310 311 311 311 312 312 314
299 297 297 297 297 297 297 296 298 299 302 303 302 305 305 305 308 309 310 311 312 311 313 313 313 313 313 312 312 312 311 310 308 310 309 310 312 312 315 316 314 315 312 311 312 314 314
298 297 297 297 297 297 297 296 297 299 302 303 302 304 306 309 309 310 310 311 312 312 312 312 313 314 314 314 313 313 312 311 309 309 310 311 313 312 311 311 312 313 313 313 312 312 313
298 297 297 297 297 297 297 295 297 298 301 302 301 305 307 308 308 310 310 310 311 312 312 312 312 313 314 314 314 314 312 313 313 310 311 311 312 313 313 313 313 314 314 314 313 313 313
298 298 297 297 296 296 296 295 297 298 300 301 302 303 306 308 309 309 310 310 310 311 311 312 312 313 313 313 312 313 312 312 311 312 312 312 313 314 316 315 316 318 315 315 314 313 313
297 297 297 296 296 296 295 295 296 297 299 300 301 303 307 309 310 310 309 310 310 310 313 312 312 313 313 313 314 314 314 314 314 314 311 312 312 312 315 316 321 318 316 316 316 315 313
297 296 296 296 296 296 295 295 296 296 298 301 303 304 306 310 310 309 309 309 311 311 312 312 312 312 312 313 314 314 316 316 315 314 314 312 314 316 318 318 317 318 316 318 316 317 314
296 295 295 295 295 295 295 294 296 292 296 301 303 302 305 310 310 309 310 308 310 311 311 312 311 312 312 314 314 314 317 315 316 315 312 313 314 315 316 318 320 320 314 314 314 320 313
295 295 295 296 296 295 294 295 296 291 297 298 302 302 304 309 311 309 311 311 312 312 313 311 312 313 312 315 314 313 316 314 317 316 314 314 314 315 314 317 316 315 312 315 319 318 311
293 295 295 294 293 294 295 294 292 291 296 297 301 302 302 305 311 309 310 311 311 312 313 311 312 312 313 314 313 315 317 315 315 314 315 316 317 316 316 316 319 312 315 318 315 312 310
290 295 293 289 293 293 293 290 292 294 293 296 299 302 304 305 311 310 310 311 311 311 311 311 313 312 313 313 313 315 315 313 316 317 311 317 316 317 316 317 314 312 314 313 310 310 309
Wind_Speed
22 23 23 24 24 25 25 25 24 25 26 25 22 18 16 21 21 19 20 16 12 11 12 9 8 10 13 10 9 4 2 5 14 20 17 13 10 7 7 4 7 11 10 9 12 11 14
22 21 23 24 23 24 25 25 26 26 28 27 25 21 15 20 22 21 22 17 12 11 12 9 7 9 12 12 11 14 3 2 8 20 19 16 8 7 4 5 9 2 6 10 10 15 15
22 22 22 23 24 24 25 26 26 28 26 26 23 23 18 17 17 24 21 21 12 10 13 11 7 8 9 11 9 12 12 12 6 13 16 17 10 7 7 4 4 6 10 12 16 16 14
23 22 22 24 27 25 27 27 27 27 26 25 23 23 20 18 18 23 20 24 10 11 12 9 7 6 6 8 16 9 12 10 10 11 12 15 11 7 4 2 3 5 5 6 3 3 6
24 26 27 28 28 26 25 27 26 27 28 25 27 24 20 21 19 11 20 24 17 14 13 10 8 6 4 7 9 11 15 12 14 12 11 12 10 5 5 5 5 8 7 9 9 7 6
26 27 25 27 27 28 26 29 25 27 27 25 28 25 23 18 24 13 17 27 20 19 15 10 8 3 8 3 6 11 20 18 11 14 10 7 5 6 8 8 5 5 9 9 10 2 8
27 27 27 29 29 30 31 29 25 26 27 27 25 24 22 18 21 22 7 29 17 7 15 8 8 2 5 7 9 11 19 15 12 13 10 10 6 11 14 14 11 4 7 11 10 10 17
27 29 30 31 30 30 31 29 25 28 27 27 22 23 21 21 21 19 27 23 30 10 9 19 8 8 7 10 5 10 20 12 14 13 11 6 13 13 8 11 13 14 16 16 14 12 12
29 29 32 32 32 30 31 29 26 26 25 25 23 27 21 23 22 22 26 24 31 15 5 9 19 9 8 10 5 15 21 10 13 12 17 9 1 6 14 14 14 16 16 15 15 16 18
31 32 30 32 32 32 31 29 25 25 26 26 26 28 21 22 20 16 24 16 28 14 3 8 10 10 16 7 4 11 20 9 5 13 11 10 13 7 8 12 13 15 11 14 14 11 6
30 31 31 33 35 32 30 28 25 25 26 26 27 22 23 20 14 14 14 14 25 11 7 12 7 9 14 16 12 8 16 4 8 9 7 3 6 11 13 12 12 7 5 7 9 11 11
32 33 33 33 33 30 29 27 24 27 28 27 30 32 33 22 17 19 7 20 22 3 6 8 7 11 14 14 8 9 13 3 6 6 7 9 1 5 6 6 14 1 6 10 10 8 9
31 30 31 33 31 30 28 26 26 28 25 28 35 36 26 15 12 16 14 26 4 5 6 9 9 13 15 12 10 11 12 10 6 5 7 8 16 6 7 8 7 12 4 3 4 6 8
31 33 34 32 30 29 27 26 29 24 29 31 35 26 6 11 14 13 20 4 5 6 6 5 14 16 9 17 7 11 13 10 12 5 3 5 4 15 12 16 5 17 14 5 6 8 10
34 33 32 31 29 28 27 28 25 26 30 32 37 14 1 11 13 13 18 4 3 8 12 12 13 9 5 12 5 8 11 8 10 13 6 6 4 3 7 7 13 5 10 14 15 21 13
33 31 30 29 28 29 28 30 25 27 31 37 32 8 3 11 10 16 2 1 1 6 19 17 7 7 8 15 8 10 12 6 9 16 14 3 4 6 4 9 12 12 0 5 6 6 15
30 29 30 29 30 30 29 31 25 28 33 30 27 5 7 12 10 11 3 2 5 16 14 3 7 9 8 13 9 10 7 2 9 11 18 7 6 4 3 12 14 10 8 6 6 8 9
29 30 28 29 29 29 29 28 24 29 32 30 10 1 16 22 3 2 2 2 9 9 2 4 7 10 13 13 11 9 10 4 9 12 10 11 5 8 16 12 15 17 16 19 9 13 8
30 29 29 29 30 30 30 28 26 29 33 41 4 1 14 5 3 3 3 2 6 3 2 3 4 3 5 9 6 8 5 3 14 12 12 11 5 4 4 4 8 11 20 22 20 12 19
28 29 28 28 28 28 28 28 26 30 34 9 3 1 4 5 2 8 11 4 5 5 4 7 6 7 7 5 2 6 7 4 14 14 7 12 6 7 10 14 3 7 15 20 18 11 18
28 30 28 27 27 28 28 30 25 30 30 13 3 2 2 2 6 8 6 4 10 3 3 4 4 3 5 4 5 4 5 3 5 11 10 8 6 11 21 24 22 23 26 22 19 27 16
28 27 27 26 26 27 26 30 24 27 34 15 7 4 2 5 14 10 4 7 6 3 3 2 3 9 6 4 3 5 5 7 6 10 11 6 6 4 13 19 22 24 24 22 20 23 27
26 27 26 25 25 24 27 29 25 26 33 13 19 11 4 3 6 6 4 6 6 6 1 3 3 3 5 7 9 10 9 5 4 7 13 4 2 2 7 13 18 9 8 10 7 10 18
25 26 26 23 23 23 25 28 25 23 24 25 20 8 3 3 4 5 7 4 7 8 3 2 6 3 2 3 5 9 13 17 16 15 11 6 4 3 6 7 4 4 7 11 11 15 17
24 24 23 22 21 22 22 23 23 22 22 23 10 2 5 2 5 7 4 4 6 5 3 2 4 5 4 3 3 4 2 3 6 10 14 12 4 3 3 5 12 7 6 6 4 5 5
22 23 22 20 21 20 21 22 22 22 20 16 10 9 6 2 7 9 6 12 6 4 2 2 3 4 4 2 1 3 2 2 1 2 3 7 8 3 1 4 4 7 7 4 2 3 14
21 21 21 21 21 20 21 21 21 20 18 18 6 11 2 4 4 19 11 8 5 5 2 0 1 2 6 4 3 4 3 2 2 3 4 3 2 5 6 5 7 6 7 2 5 7 14
19 20 20 20 20 18 18 18 19 19 17 17 11 13 10 5 3 13 14 7 6 7 4 5 3 2 2 4 3 3 3 2 3 2 4 7 5 4 4 4 4 1 3 4 4 8 9
18 19 20 22 20 21 20 20 19 18 17 15 12 12 9 6 3 8 10 11 14 10 11 9 1 4 3 2 3 2 3 2 4 3 3 4 4 2 5 4 3 3 8 10 9 8 5
Wind_Direction
358 354 352 351 349 350 347 343 340 340 337 332 326 307 309 294 265 261 249 264 280 265 247 238 227 210 190 209 222 186 202 208 204 197 189 183 188 188 214 208 212 234 249 247 250 248 254
351 351 349 351 349 345 343 343 338 336 328 329 325 320 298 317 261 260 241 249 266 256 239 228 225 211 201 222 229 225 211 235 201 187 190 189 197 186 178 218 228 277 267 265 264 257 261
352 350 347 349 341 338 337 336 338 335 332 328 324 314 285 312 294 249 240 235 239 239 229 218 221 217 218 225 229 225 224 236 184 184 189 191 180 178 170 189 239 280 281 274 259 254 259
346 344 340 342 335 333 332 331 332 330 328 327 313 310 289 298 303 246 237 221 219 220 207 208 213 220 242 236 232 198 193 186 191 183 199 203 193 152 191 164 222 257 264 282 97 205 230
340 332 336 335 328 330 329 326 326 326 326 319 311 315 305 279 296 263 233 222 204 199 192 195 207 198 251 237 221 205 193 170 160 145 141 147 148 169 160 228 249 217 257 237 281 248 272
333 331 328 328 327 324 325 322 321 324 323 313 309 308 310 270 284 276 226 215 190 181 177 177 191 223 228 199 189 189 180 179 156 148 128 148 170 196 214 198 229 232 226 237 252 178 269
331 330 328 327 319 325 324 318 318 319 320 312 312 305 311 300 275 268 231 173 153 158 180 187 190 204 138 148 146 170 171 159 163 186 193 196 198 209 217 221 240 279 261 260 262 278 298
333 329 325 322 325 325 321 320 322 320 320 316 321 314 310 305 289 278 262 191 172 175 177 202 159 191 154 158 138 164 164 163 169 190 177 177 227 227 232 234 240 248 263 267 279 276 279
328 329 326 324 323 322 323 324 321 321 317 321 319 318 310 309 286 280 255 204 183 153 96 177 203 188 199 181 189 181 177 170 183 171 193 198 147 215 217 225 233 238 249 265 274 296 290
333 327 325 323 326 327 327 325 324 325 323 325 319 316 311 313 291 281 250 247 184 170 141 167 188 220 203 163 233 177 176 170 172 195 190 234 217 196 192 223 230 260 257 260 267 277 272
332 333 331 327 329 331 330 328 329 328 326 322 314 300 321 310 262 274 236 235 185 194 196 135 152 160 171 176 137 167 182 186 177 162 176 170 183 211 226 234 218 243 223 249 260 253 278
340 333 330 331 333 333 333 331 333 330 327 322 318 314 313 305 251 238 263 208 159 169 193 154 133 162 156 191 153 136 173 188 179 193 234 258 197 206 215 219 214 49 231 253 265 257 249
342 338 338 336 336 337 334 337 336 330 328 322 325 317 299 259 227 222 204 144 126 230 163 150 168 157 162 167 148 158 176 176 169 166 210 222 233 210 189 217 203 221 179 265 237 208 247
332 333 340 339 341 339 340 341 335 334 330 337 332 337 302 211 192 175 176 149 179 124 130 178 153 151 171 156 170 170 168 188 213 191 128 221 218 198 196 215 202 208 210 217 258 247 298
338 343 342 344 346 346 345 343 340 337 337 342 334 337 23 178 181 198 148 185 157 162 140 140 133 151 129 166 159 154 184 199 196 197 196 173 247 195 205 206 204 179 217 238 267 264 264
338 344 345 348 348 349 349 347 344 341 342 347 345 344 190 168 177 156 108 112 263 122 128 142 134 194 162 170 163 183 179 199 210 203 203 183 257 209 199 216 233 227 234 201 201 253 250
344 345 347 347 349 351 350 348 345 345 344 351 345 343 150 152 155 115 212 116 107 135 125 138 133 144 162 168 174 178 174 183 206 190 195 168 215 155 174 210 206 200 225 217 278 234 252
346 347 348 349 348 351 354 351 349 346 345 343 317 308 154 151 131 161 167 158 129 144 124 109 102 104 145 159 172 186 200 234 181 154 185 205 208 239 238 239 228 233 238 226 235 233 235
345 348 348 350 350 355 353 353 350 346 342 332 293 4 161 170 129 112 113 95 76 115 83 97 101 100 149 157 155 185 188 177 171 182 176 176 213 276 254 190 224 239 241 236 235 258 246
345 348 349 350 353 351 355 355 352 349 355 4 147 119 141 183 151 130 134 97 107 46 65 76 105 97 121 150 124 178 207 199 196 204 194 181 217 230 259 279 331 253 254 246 231 242 254
346 346 350 351 355 351 357 356 356 1 14 23 30 38 60 107 162 146 125 108 122 114 72 93 105 123 153 149 161 207 199 192 181 204 193 202 246 234 257 271 278 268 266 262 228 235 239
348 348 350 356 354 352 355 0 1 5 15 23 21 355 52 124 157 156 107 142 163 112 121 117 136 170 179 185 189 189 207 212 213 188 198 219 274 276 277 269 267 272 269 264 249 242 244
351 347 351 350 356 358 358 1 8 10 13 9 354 349 331 157 151 159 166 151 177 128 161 91 152 146 198 239 259 263 218 240 234 194 200 212 233 278 270 319 302 271 268 259 237 229 231
351 350 350 352 356 360 357 359 6 7 8 359 347 332 308 149 174 153 149 146 177 181 120 131 145 177 56 191 282 256 243 248 244 228 202 190 182 217 291 313 288 277 292 285 277 268 238
351 348 350 356 353 356 358 357 5 0 2 1 21 340 315 131 182 191 182 141 147 103 198 169 180 202 244 310 271 297 213 224 219 236 227 215 203 268 278 299 276 291 330 320 315 336 300
351 348 350 352 351 353 353 356 2 359 3 4 50 16 303 275 214 176 177 199 204 204 218 227 234 227 211 234 190 258 266 272 127 145 32 225 226 213 329 302 301 301 347 344 200 14 3
350 348 354 353 353 354 355 357 350 358 7 357 356 5 285 256 249 192 195 185 170 159 112 193 211 172 194 183 222 235 247 257 273 213 174 154 187 227 235 260 269 273 309 283 3 323 345
346 345 347 349 347 347 340 339 344 354 1 355 341 357 4 299 287 193 201 162 149 162 173 140 152 183 166 210 229 231 249 256 271 229 192 198 195 205 198 236 288 171 282 353 339 324 323
337 338 342 349 348 343 343 336 340 341 345 349 333 340 339 225 257 203 210 209 216 239 214 182 277 131 171 202 220 270 223 219 264 267 174 226 230 258 225 250 321 263 270 290 311 303 315